AirNav   Everest Fuels
 
 1089 users online  

4OR7 Lusardi Field Airport
Salem, Oregon, USA

GOING TO SALEM?


FAA INFORMATION EFFECTIVE 19 MAY 2022

Location

FAA Identifier: 4OR7
Lat/Long: 44-59-07.4320N 122-56-46.3400W
44-59.123867N 122-56.772333W
44.9853978,-122.9462056
(estimated)
Elevation: 205 ft. / 62 m (estimated)
Variation: 19E (1985)
From city: 7 miles NE of SALEM, OR
Time zone: UTC -7 (UTC -8 during Standard Time)
Zip code: 97305

Airport Operations

Airport use: Private use. Permission required prior to landing
Activation date: 03/1976
Control tower: no
ARTCC: SEATTLE CENTER
FSS: MC MINNVILLE FLIGHT SERVICE STATION
Attendance: UNATNDD
Wind indicator: yes
Segmented circle: no
Lights: FOR RY LIGHTS CALL 503-931-0404.

Airport Communications

WX ASOS at SLE (5 nm SW): 124.55 (503-371-1062)
WX ASOS at MMV (15 nm NW): 135.675 (503-434-9153)
WX ASOS at UAO (17 nm NE): PHONE 503-678-3011

Nearby radio navigation aids

VOR radial/distance  VOR name  Freq  Var
UBGr155/22.1NEWBERG VOR/DME117.4021E
CVOr009/32.7CORVALLIS VOR/DME115.4018E

 
NDB name  Hdg/Dist  Freq  Var  ID
TURNO344/8.326617ESL ... .-..
LEWISBURG017/26.222515ELWG .-.. .-- --.
BANKS158/38.935616EPND .--. -. -..

Airport Services

Runway Information

Runway 17/35

Dimensions: 2200 x 60 ft. / 671 x 18 m
Surface: turf
Runway edge lights: low intensity
RUNWAY 17  RUNWAY 35
Traffic pattern: leftleft
Obstructions: trees, lighted, 600 ft. from runwaypline, lighted, 800 ft. from runway

Airport Ownership and Management from official FAA records

Ownership: Privately-owned
Owner: ROBERT LUSARDI
5605 IBEX ST NE
SALEM, OR 97305
Phone 503-399-7123
Manager: ROBERT LUSARDI
5605 IBEX ST NE
SALEM, OR 97305
Phone 503-319-2370

Airport Operational Statistics

Aircraft based on the field: 8
Single engine airplanes: 8
    

Additional Remarks

RY 35 PREFERRED CALM WIND RY.
FOR CD CTC SEATTLE ARTCC AT 253-351-3694.

Instrument Procedures

There are no published instrument procedures at 4OR7.

Some nearby airports with instrument procedures:

KSLE - McNary Field Airport (5 nm SW)
KMMV - Mc Minnville Municipal Airport (15 nm NW)
KUAO - Aurora State Airport (17 nm NE)
S12 - Albany Municipal Airport (21 nm S)
KCVO - Corvallis Municipal Airport (33 nm SW)
 
Loc | Ops | Rwys | IFR | FBO | Links
Com | Nav | Svcs | Stats | Notes
Area around 4OR7 (Lusardi Field Airport)
 
Road maps at: MapQuest Bing Google
 
Aerial photo
WARNING: Photo may not be current or correct
Aerial photo of 4OR7 (Lusardi Field Airport)
Do you have a better or more recent aerial photo of Lusardi Field Airport that you would like to share? If so, please send us your photo.

 
Sectional chart

 
Airport distance calculator
Flying to Lusardi Field Airport? Find the distance to fly.

From to 4OR7

Sunrise and sunset
Times for 28-May-2022
 Local
(UTC-7)
 Zulu
(UTC)
Morning civil twilight04:5611:56
Sunrise05:3212:32
Sunset20:4603:46
Evening civil twilight21:2204:22

Current date and time
Zulu (UTC)  28-May-2022 22:57:19
Local (UTC-7)  28-May-2022 15:57:19
 
METAR
KSLE 
6nm SW 
282156Z 16011KT 4SM -RA BR FEW023 BKN034 OVC044 16/13 A2959 RMK AO2 RAE21B49 SLP020 P0000 T01560133 $
KMMV 
15nm NW 
282253Z AUTO 13009KT 10SM SCT022 BKN029 OVC070 16/13 A2957 RMK AO2 RAE36 SLP014 P0000 T01560133
KUAO 
18nm NE 
282253Z 06006KT 10SM FEW005 OVC030 16/13 A2960 RMK AO2 SLP022 T01560128 $
TAF
KSLE 
6nm SW 
282123Z 2821/2918 15010KT 5SM -RA BR SCT015 OVC035 FM282300 17013G23KT 4SM RA BKN015 OVC025 FM290400 24010G19KT 6SM -SHRA SCT015 BKN025 OVC040 FM290900 26010KT P6SM -SHRA SCT025 BKN040
KUAO 
18nm NE 
281751Z 2818/2918 06004KT P6SM -SHRA SCT045 OVC080 FM282000 14007KT P6SM -RA BKN025 OVC040 FM282300 17009G18KT 5SM RA BR SCT012 OVC025 FM290400 21010KT 6SM -RA FEW015 BKN030 FM291000 22009KT P6SM -SHRA SCT025 BKN040
NOTAMs
Click for the latest NOTAMs
NOTAMs are issued by the DoD/FAA and will open in a separate window not controlled by AirNav.

 

 
 

Would you like to see your business listed on this page?

 If your business provides an interesting product or service to pilots, flight crews, aircraft, or users of the Lusardi Field Airport, you should consider listing it here.  To start the listing process, click on the button below
 
Add a business
 

Other Pages about Lusardi Field Airport

Update a link
 
Copyright © AirNav, LLC. All rights reserved. Privacy Policy  Contact